Time,TemperatureF,DewpointF,PressureIn,WindDirection,WindDirectionDegrees,WindSpeedMPH,WindSpeedGustMPH,Humidity,HourlyPrecipIn,Conditions,Clouds,dailyrainin,SoftwareType,DateUTC
2013-10-13 00:01:00,52.9,48.0,29.95,WSW,247,0.0,1.0,85,0.00,,,0.00,Rainwise IP-100,2013-10-13 04:01:00,
2013-10-13 00:02:00,52.9,48.0,29.95,WSW,247,1.2,1.2,85,0.00,,,0.00,Rainwise IP-100,2013-10-13 04:02:00,
2013-10-13 00:03:00,52.9,48.0,29.95,WSW,247,0.0,1.0,85,0.00,,,0.00,Rainwise IP-100,2013-10-13 04:03:00,
2013-10-13 00:06:00,52.8,48.0,29.95,SSE,157,1.6,2.0,85,0.00,,,0.00,Rainwise IP-100,2013-10-13 04:06:00,
2013-10-13 00:11:00,52.8,48.0,29.95,SW,225,0.0,3.0,85,0.00,,,0.00,Rainwise IP-100,2013-10-13 04:11:00,
2013-10-13 00:16:00,52.8,48.0,29.95,SSW,202,0.0,4.0,85,0.00,,,0.00,Rainwise IP-100,2013-10-13 04:16:00,
2013-10-13 00:21:00,52.7,48.0,29.95,West,270,0.0,2.0,85,0.00,,,0.00,Rainwise IP-100,2013-10-13 04:21:00,
2013-10-13 00:27:00,52.7,48.0,29.95,West,270,0.0,1.0,85,0.00,,,0.00,Rainwise IP-100,2013-10-13 04:27:00,
2013-10-13 00:32:00,52.7,48.0,29.95,SE,135,0.0,2.0,85,0.00,,,0.00,Rainwise IP-100,2013-10-13 04:32:00,
2013-10-13 00:37:00,52.7,48.0,29.95,East,90,0.0,1.0,86,0.00,,,0.00,Rainwise IP-100,2013-10-13 04:37:00,
2013-10-13 00:42:00,52.7,48.0,29.95,East,90,0.0,0.0,86,0.00,,,0.00,Rainwise IP-100,2013-10-13 04:42:00,
2013-10-13 00:47:00,52.7,48.0,29.95,East,90,0.0,1.0,86,0.00,,,0.00,Rainwise IP-100,2013-10-13 04:47:00,
2013-10-13 00:52:00,52.7,48.0,29.95,ESE,112,0.0,4.0,86,0.00,,,0.00,Rainwise IP-100,2013-10-13 04:52:00,
2013-10-13 00:57:00,52.6,48.0,29.95,ESE,112,0.0,3.0,86,0.00,,,0.00,Rainwise IP-100,2013-10-13 04:57:00,
2013-10-13 01:02:00,52.6,48.0,29.95,ESE,112,0.0,4.0,86,0.00,,,0.00,Rainwise IP-100,2013-10-13 05:02:00,
2013-10-13 01:07:00,52.5,48.0,29.95,ESE,112,3.3,4.0,86,0.00,,,0.00,Rainwise IP-100,2013-10-13 05:07:00,
2013-10-13 01:12:00,52.5,48.0,29.96,SE,135,0.0,3.0,86,0.00,,,0.00,Rainwise IP-100,2013-10-13 05:12:00,
2013-10-13 01:17:00,52.5,48.0,29.96,South,180,1.6,4.0,86,0.00,,,0.00,Rainwise IP-100,2013-10-13 05:17:00,
2013-10-13 01:22:00,52.4,48.0,29.95,ENE,67,2.1,4.0,86,0.00,,,0.00,Rainwise IP-100,2013-10-13 05:22:00,
2013-10-13 01:27:00,52.4,48.0,29.95,ENE,67,0.0,3.0,86,0.00,,,0.00,Rainwise IP-100,2013-10-13 05:27:00,
2013-10-13 01:32:00,52.3,48.0,29.95,ESE,112,2.1,3.0,86,0.00,,,0.00,Rainwise IP-100,2013-10-13 05:32:00,
2013-10-13 01:37:00,52.1,48.0,29.95,ESE,112,1.9,4.0,86,0.00,,,0.00,Rainwise IP-100,2013-10-13 05:37:00,
2013-10-13 01:43:00,52.0,48.0,29.95,ESE,112,0.0,3.0,86,0.00,,,0.00,Rainwise IP-100,2013-10-13 05:43:00,
2013-10-13 01:48:00,51.7,48.0,29.95,SSE,157,0.0,1.0,86,0.00,,,0.00,Rainwise IP-100,2013-10-13 05:48:00,
2013-10-13 01:53:00,51.4,47.0,29.95,SSE,157,0.0,1.0,87,0.00,,,0.00,Rainwise IP-100,2013-10-13 05:53:00,
2013-10-13 01:58:00,51.0,47.0,29.95,SSE,157,0.0,0.0,87,0.00,,,0.00,Rainwise IP-100,2013-10-13 05:58:00,
2013-10-13 02:03:00,50.6,47.0,29.95,SSE,157,0.0,0.0,88,0.00,,,0.00,Rainwise IP-100,2013-10-13 06:03:00,
2013-10-13 02:08:00,50.2,47.0,29.95,SSE,157,0.0,0.0,89,0.00,,,0.00,Rainwise IP-100,2013-10-13 06:08:00,
2013-10-13 02:13:00,50.0,47.0,29.95,SSE,157,0.0,0.0,90,0.00,,,0.00,Rainwise IP-100,2013-10-13 06:13:00,
2013-10-13 02:18:00,49.7,47.0,29.95,SSE,157,0.0,0.0,90,0.00,,,0.00,Rainwise IP-100,2013-10-13 06:18:00,
2013-10-13 02:23:00,49.4,47.0,29.95,SSE,157,0.0,0.0,91,0.00,,,0.00,Rainwise IP-100,2013-10-13 06:23:00,
2013-10-13 02:28:00,48.9,47.0,29.95,SSE,157,0.0,0.0,92,0.00,,,0.00,Rainwise IP-100,2013-10-13 06:28:00,
2013-10-13 02:33:00,48.4,47.0,29.95,SSE,157,0.0,0.0,93,0.00,,,0.00,Rainwise IP-100,2013-10-13 06:33:00,
2013-10-13 02:38:00,48.1,47.0,29.95,SSE,157,0.0,0.0,93,0.00,,,0.00,Rainwise IP-100,2013-10-13 06:38:00,
2013-10-13 02:43:00,47.9,47.0,29.95,SSE,157,0.0,0.0,94,0.00,,,0.00,Rainwise IP-100,2013-10-13 06:43:00,
2013-10-13 02:48:00,47.8,46.0,29.95,SSE,157,0.0,0.0,94,0.00,,,0.00,Rainwise IP-100,2013-10-13 06:48:00,
2013-10-13 02:53:00,47.5,46.0,29.95,SSE,157,0.0,0.0,95,0.00,,,0.00,Rainwise IP-100,2013-10-13 06:53:00,
2013-10-13 02:59:00,47.2,45.0,29.95,SSE,157,0.0,0.0,95,0.00,,,0.00,Rainwise IP-100,2013-10-13 06:59:00,
2013-10-13 03:04:00,47.0,45.0,29.95,SSE,157,0.0,0.0,95,0.00,,,0.00,Rainwise IP-100,2013-10-13 07:04:00,
2013-10-13 03:09:00,46.8,45.0,29.95,SSE,157,0.0,0.0,95,0.00,,,0.00,Rainwise IP-100,2013-10-13 07:09:00,
2013-10-13 03:14:00,46.6,46.0,29.94,SSE,157,0.0,0.0,96,0.00,,,0.00,Rainwise IP-100,2013-10-13 07:14:00,
2013-10-13 03:19:00,46.2,44.0,29.94,SSE,157,0.0,0.0,95,0.00,,,0.00,Rainwise IP-100,2013-10-13 07:19:00,
2013-10-13 03:24:00,46.0,45.0,29.94,SSE,157,0.0,0.0,96,0.00,,,0.00,Rainwise IP-100,2013-10-13 07:24:00,
2013-10-13 03:29:00,46.0,45.0,29.94,SSE,157,0.0,0.0,97,0.00,,,0.00,Rainwise IP-100,2013-10-13 07:29:00,
2013-10-13 03:34:00,46.0,45.0,29.94,SSE,157,0.0,0.0,97,0.00,,,0.00,Rainwise IP-100,2013-10-13 07:34:00,
2013-10-13 03:39:00,45.8,45.0,29.94,SSE,157,0.0,0.0,97,0.00,,,0.00,Rainwise IP-100,2013-10-13 07:39:00,
2013-10-13 03:44:00,45.5,45.0,29.95,SSE,157,0.0,0.0,97,0.00,,,0.00,Rainwise IP-100,2013-10-13 07:44:00,
2013-10-13 03:49:00,45.2,44.0,29.94,SSE,157,0.0,0.0,97,0.00,,,0.00,Rainwise IP-100,2013-10-13 07:49:00,
2013-10-13 03:54:00,45.0,44.0,29.95,SSE,157,0.0,0.0,97,0.00,,,0.00,Rainwise IP-100,2013-10-13 07:54:00,
2013-10-13 03:59:00,45.0,44.0,29.95,NW,315,0.0,2.0,97,0.00,,,0.00,Rainwise IP-100,2013-10-13 07:59:00,
2013-10-13 04:04:00,45.1,44.0,29.95,NW,315,0.0,1.0,97,0.00,,,0.00,Rainwise IP-100,2013-10-13 08:04:00,
2013-10-13 04:09:00,45.0,44.0,29.95,NW,315,0.0,0.0,97,0.00,,,0.00,Rainwise IP-100,2013-10-13 08:09:00,
2013-10-13 04:15:00,44.8,44.0,29.95,NNW,337,0.0,3.0,97,0.00,,,0.00,Rainwise IP-100,2013-10-13 08:15:00,
2013-10-13 04:20:00,44.6,44.0,29.95,NNW,337,0.0,1.0,97,0.00,,,0.00,Rainwise IP-100,2013-10-13 08:20:00,
2013-10-13 04:25:00,44.5,44.0,29.95,NNW,337,0.0,0.0,97,0.00,,,0.00,Rainwise IP-100,2013-10-13 08:25:00,
2013-10-13 04:30:00,44.2,43.0,29.95,NNW,337,0.0,1.0,97,0.00,,,0.00,Rainwise IP-100,2013-10-13 08:30:00,
2013-10-13 04:35:00,43.9,43.0,29.95,NNW,337,0.0,1.0,97,0.00,,,0.00,Rainwise IP-100,2013-10-13 08:35:00,
2013-10-13 04:40:00,44.0,43.0,29.95,NNW,337,0.0,0.0,97,0.00,,,0.00,Rainwise IP-100,2013-10-13 08:40:00,
2013-10-13 04:45:00,44.0,43.0,29.95,NNW,337,0.0,0.0,97,0.00,,,0.00,Rainwise IP-100,2013-10-13 08:45:00,
2013-10-13 04:50:00,44.0,43.0,29.95,NNW,337,0.0,0.0,97,0.00,,,0.00,Rainwise IP-100,2013-10-13 08:50:00,
2013-10-13 04:55:00,44.0,43.0,29.95,NNW,337,1.4,2.0,97,0.00,,,0.00,Rainwise IP-100,2013-10-13 08:55:00,
2013-10-13 05:00:00,43.8,43.0,29.95,NW,315,2.3,2.3,97,0.00,,,0.00,Rainwise IP-100,2013-10-13 09:00:00,
2013-10-13 05:05:00,43.7,43.0,29.95,NNW,337,2.1,3.0,97,0.00,,,0.00,Rainwise IP-100,2013-10-13 09:05:00,
2013-10-13 05:10:00,43.7,43.0,29.95,NNW,337,2.3,3.0,97,0.00,,,0.00,Rainwise IP-100,2013-10-13 09:10:00,
2013-10-13 05:15:00,43.6,43.0,29.95,NNW,337,0.0,3.0,97,0.00,,,0.00,Rainwise IP-100,2013-10-13 09:15:00,
2013-10-13 05:20:00,43.5,43.0,29.96,NNW,337,0.0,0.0,97,0.00,,,0.00,Rainwise IP-100,2013-10-13 09:20:00,
2013-10-13 05:25:00,43.2,42.0,29.96,NNW,337,0.0,0.0,97,0.00,,,0.00,Rainwise IP-100,2013-10-13 09:25:00,
2013-10-13 05:31:00,42.9,42.0,29.95,NNW,337,0.0,0.0,97,0.00,,,0.00,Rainwise IP-100,2013-10-13 09:31:00,
2013-10-13 05:36:00,42.8,42.0,29.96,NNW,337,0.0,1.0,98,0.00,,,0.00,Rainwise IP-100,2013-10-13 09:36:00,
2013-10-13 05:41:00,42.8,42.0,29.96,NNW,337,0.0,1.0,98,0.00,,,0.00,Rainwise IP-100,2013-10-13 09:41:00,
2013-10-13 05:46:00,42.8,42.0,29.96,NNW,337,0.0,0.0,98,0.00,,,0.00,Rainwise IP-100,2013-10-13 09:46:00,
2013-10-13 05:51:00,42.6,42.0,29.96,NNW,337,0.0,0.0,98,0.00,,,0.00,Rainwise IP-100,2013-10-13 09:51:00,
2013-10-13 05:56:00,42.5,42.0,29.96,NNW,337,0.0,2.0,98,0.00,,,0.00,Rainwise IP-100,2013-10-13 09:56:00,
2013-10-13 06:01:00,42.3,41.0,29.96,NNW,337,0.0,0.0,98,0.00,,,0.00,Rainwise IP-100,2013-10-13 10:01:00,
2013-10-13 06:06:00,42.1,41.0,29.97,NNW,337,0.0,0.0,98,0.00,,,0.00,Rainwise IP-100,2013-10-13 10:06:00,
2013-10-13 06:11:00,41.9,41.0,29.96,NNW,337,1.9,0.0,98,0.00,,,0.00,Rainwise IP-100,2013-10-13 10:11:00,
2013-10-13 06:16:00,41.9,41.0,29.96,NNW,337,0.0,2.0,98,0.00,,,0.00,Rainwise IP-100,2013-10-13 10:16:00,
2013-10-13 06:21:00,42.0,41.0,29.96,NNW,337,0.0,3.0,98,0.00,,,0.00,Rainwise IP-100,2013-10-13 10:21:00,
2013-10-13 06:26:00,42.0,41.0,29.97,NNW,337,0.0,1.0,98,0.00,,,0.00,Rainwise IP-100,2013-10-13 10:26:00,
2013-10-13 06:31:00,41.9,41.0,29.97,NNW,337,0.0,0.0,98,0.00,,,0.00,Rainwise IP-100,2013-10-13 10:31:00,
2013-10-13 06:36:00,41.9,41.0,29.97,NNW,337,0.0,0.0,98,0.00,,,0.00,Rainwise IP-100,2013-10-13 10:36:00,
2013-10-13 06:41:00,41.8,41.0,29.97,NNW,337,0.0,0.0,98,0.00,,,0.00,Rainwise IP-100,2013-10-13 10:41:00,
2013-10-13 06:47:00,41.8,41.0,29.97,NNW,337,0.0,0.0,98,0.00,,,0.00,Rainwise IP-100,2013-10-13 10:47:00,
2013-10-13 06:52:00,41.9,41.0,29.97,NNW,337,0.0,0.0,98,0.00,,,0.00,Rainwise IP-100,2013-10-13 10:52:00,
2013-10-13 06:57:00,42.0,41.0,29.97,NNW,337,0.0,0.0,98,0.00,,,0.00,Rainwise IP-100,2013-10-13 10:57:00,
2013-10-13 07:02:00,42.0,41.0,29.98,NNW,337,0.0,0.0,98,0.00,,,0.00,Rainwise IP-100,2013-10-13 11:02:00,
2013-10-13 07:07:00,41.9,41.0,29.98,NNW,337,0.0,0.0,98,0.00,,,0.00,Rainwise IP-100,2013-10-13 11:07:00,
2013-10-13 07:12:00,42.0,41.0,29.98,NNW,337,0.0,0.0,98,0.00,,,0.00,Rainwise IP-100,2013-10-13 11:12:00,
2013-10-13 07:17:00,42.1,41.0,29.98,NNW,337,1.6,1.6,98,0.00,,,0.00,Rainwise IP-100,2013-10-13 11:17:00,
2013-10-13 07:22:00,42.1,42.0,29.98,NNW,337,0.0,1.0,99,0.00,,,0.00,Rainwise IP-100,2013-10-13 11:22:00,
2013-10-13 07:27:00,42.1,42.0,29.98,NNW,337,0.0,0.0,99,0.00,,,0.00,Rainwise IP-100,2013-10-13 11:27:00,
2013-10-13 07:32:00,42.1,42.0,29.98,NNW,337,1.4,1.4,99,0.00,,,0.00,Rainwise IP-100,2013-10-13 11:32:00,
2013-10-13 07:37:00,42.1,42.0,29.98,NNW,337,0.0,1.0,99,0.00,,,0.00,Rainwise IP-100,2013-10-13 11:37:00,
2013-10-13 07:42:00,42.1,42.0,29.98,NNW,337,0.0,1.0,99,0.00,,,0.00,Rainwise IP-100,2013-10-13 11:42:00,
2013-10-13 07:47:00,42.3,42.0,29.98,NNW,337,0.0,0.0,99,0.00,,,0.00,Rainwise IP-100,2013-10-13 11:47:00,
2013-10-13 07:52:00,42.3,42.0,29.98,NNW,337,0.0,0.0,99,0.00,,,0.00,Rainwise IP-100,2013-10-13 11:52:00,
2013-10-13 07:57:00,42.6,43.0,29.98,NNW,337,0.0,0.0,99,0.00,,,0.00,Rainwise IP-100,2013-10-13 11:57:00,
2013-10-13 08:03:00,42.7,43.0,29.98,SE,135,0.0,1.0,99,0.00,,,0.00,Rainwise IP-100,2013-10-13 12:03:00,
2013-10-13 08:08:00,42.7,43.0,29.98,SE,135,0.0,1.0,99,0.00,,,0.00,Rainwise IP-100,2013-10-13 12:08:00,
2013-10-13 08:13:00,42.8,43.0,29.98,SE,135,0.0,0.0,99,0.00,,,0.00,Rainwise IP-100,2013-10-13 12:13:00,
2013-10-13 08:18:00,42.9,43.0,29.98,SE,135,0.0,0.0,99,0.00,,,0.00,Rainwise IP-100,2013-10-13 12:18:00,
2013-10-13 08:23:00,43.1,43.0,29.98,NNW,337,2.3,2.3,99,0.00,,,0.00,Rainwise IP-100,2013-10-13 12:23:00,
2013-10-13 08:28:00,43.2,43.0,29.99,North,360,0.0,3.0,99,0.00,,,0.00,Rainwise IP-100,2013-10-13 12:28:00,
2013-10-13 08:33:00,43.3,43.0,29.98,North,360,0.0,0.0,99,0.00,,,0.00,Rainwise IP-100,2013-10-13 12:33:00,
2013-10-13 08:38:00,43.5,44.0,29.98,North,360,0.0,0.0,99,0.00,,,0.00,Rainwise IP-100,2013-10-13 12:38:00,
2013-10-13 08:43:00,43.6,44.0,29.98,North,360,0.0,0.0,99,0.00,,,0.00,Rainwise IP-100,2013-10-13 12:43:00,
2013-10-13 08:48:00,43.9,44.0,29.99,North,360,0.0,0.0,99,0.00,,,0.00,Rainwise IP-100,2013-10-13 12:48:00,
2013-10-13 08:53:00,44.1,44.0,29.98,North,360,0.0,0.0,99,0.00,,,0.00,Rainwise IP-100,2013-10-13 12:53:00,
2013-10-13 08:58:00,44.2,44.0,29.99,NW,315,0.0,0.0,99,0.00,,,0.00,Rainwise IP-100,2013-10-13 12:58:00,
2013-10-13 09:03:00,44.4,44.0,29.99,NW,315,0.0,0.0,99,0.00,,,0.00,Rainwise IP-100,2013-10-13 13:03:00,
2013-10-13 09:08:00,44.6,45.0,29.99,NE,45,2.3,2.3,99,0.00,,,0.00,Rainwise IP-100,2013-10-13 13:08:00,
2013-10-13 09:13:00,44.5,45.0,29.99,NE,45,2.6,3.0,99,0.00,,,0.00,Rainwise IP-100,2013-10-13 13:13:00,
2013-10-13 09:19:00,44.4,44.0,29.99,NE,45,0.0,4.0,99,0.00,,,0.00,Rainwise IP-100,2013-10-13 13:19:00,
2013-10-13 09:24:00,44.6,45.0,29.99,NE,45,0.0,2.0,99,0.00,,,0.00,Rainwise IP-100,2013-10-13 13:24:00,
2013-10-13 09:29:00,45.0,45.0,29.99,NE,45,0.0,1.0,99,0.00,,,0.00,Rainwise IP-100,2013-10-13 13:29:00,
2013-10-13 09:34:00,45.4,45.0,30.00,ENE,67,0.0,0.0,99,0.00,,,0.00,Rainwise IP-100,2013-10-13 13:34:00,
2013-10-13 09:39:00,45.9,46.0,29.99,ENE,67,1.2,1.2,99,0.00,,,0.00,Rainwise IP-100,2013-10-13 13:39:00,
2013-10-13 09:44:00,46.4,46.0,29.99,ENE,67,2.3,2.3,99,0.00,,,0.00,Rainwise IP-100,2013-10-13 13:44:00,
2013-10-13 09:49:00,47.1,47.0,29.99,ENE,67,0.0,2.0,99,0.00,,,0.00,Rainwise IP-100,2013-10-13 13:49:00,
2013-10-13 09:54:00,48.3,48.0,29.99,SE,135,1.4,1.4,99,0.00,,,0.00,Rainwise IP-100,2013-10-13 13:54:00,
2013-10-13 09:59:00,49.4,49.0,29.99,East,90,2.1,3.0,99,0.00,,,0.00,Rainwise IP-100,2013-10-13 13:59:00,
2013-10-13 10:04:00,49.4,49.0,30.00,East,90,0.0,3.0,99,0.00,,,0.00,Rainwise IP-100,2013-10-13 14:04:00,
2013-10-13 10:09:00,50.3,50.0,30.00,SE,135,2.3,2.3,99,0.00,,,0.00,Rainwise IP-100,2013-10-13 14:09:00,
2013-10-13 10:14:00,51.5,52.0,30.00,NNE,22,1.9,2.0,100,0.00,,,0.00,Rainwise IP-100,2013-10-13 14:14:00,
2013-10-13 10:19:00,51.9,52.0,30.00,NE,45,2.6,3.0,99,0.00,,,0.00,Rainwise IP-100,2013-10-13 14:19:00,
2013-10-13 10:24:00,52.3,52.0,30.00,NNE,22,0.0,3.0,99,0.00,,,0.00,Rainwise IP-100,2013-10-13 14:24:00,
2013-10-13 10:29:00,53.3,52.0,30.00,NNE,22,1.9,2.0,98,0.00,,,0.00,Rainwise IP-100,2013-10-13 14:29:00,
2013-10-13 10:35:00,54.0,53.0,30.00,ENE,67,1.9,2.0,96,0.00,,,0.00,Rainwise IP-100,2013-10-13 14:35:00,
2013-10-13 10:40:00,54.5,53.0,30.00,ENE,67,0.0,2.0,93,0.00,,,0.00,Rainwise IP-100,2013-10-13 14:40:00,
2013-10-13 10:45:00,55.3,53.0,30.00,SW,225,2.1,3.0,90,0.00,,,0.00,Rainwise IP-100,2013-10-13 14:45:00,
2013-10-13 10:50:00,56.3,52.0,30.00,SSW,202,0.0,4.0,86,0.00,,,0.00,Rainwise IP-100,2013-10-13 14:50:00,
2013-10-13 10:55:00,57.0,52.0,29.99,SSE,157,0.0,4.0,83,0.00,,,0.00,Rainwise IP-100,2013-10-13 14:55:00,
2013-10-13 11:00:00,57.6,51.0,29.99,SSE,157,2.6,3.0,79,0.00,,,0.00,Rainwise IP-100,2013-10-13 15:00:00,
2013-10-13 11:05:00,58.1,50.0,29.99,ESE,112,1.2,3.0,76,0.00,,,0.00,Rainwise IP-100,2013-10-13 15:05:00,
2013-10-13 11:10:00,58.4,50.0,29.99,SSW,202,4.7,4.7,73,0.00,,,0.00,Rainwise IP-100,2013-10-13 15:10:00,
2013-10-13 11:15:00,58.5,49.0,30.00,SE,135,2.1,4.0,70,0.00,,,0.00,Rainwise IP-100,2013-10-13 15:15:00,
2013-10-13 11:20:00,58.5,48.0,29.99,NNE,22,0.0,4.0,68,0.00,,,0.00,Rainwise IP-100,2013-10-13 15:20:00,
2013-10-13 11:25:00,58.8,48.0,30.00,SE,135,2.1,4.0,68,0.00,,,0.00,Rainwise IP-100,2013-10-13 15:25:00,
2013-10-13 11:30:00,59.3,48.0,29.99,ENE,67,3.3,4.0,67,0.00,,,0.00,Rainwise IP-100,2013-10-13 15:30:00,
2013-10-13 11:35:00,58.4,47.0,29.99,NE,45,2.6,4.0,66,0.00,,,0.00,Rainwise IP-100,2013-10-13 15:35:00,
2013-10-13 11:40:00,58.6,47.0,29.99,South,180,1.9,3.0,65,0.00,,,0.00,Rainwise IP-100,2013-10-13 15:40:00,
2013-10-13 11:45:00,59.3,47.0,29.99,ENE,67,5.1,5.1,64,0.00,,,0.00,Rainwise IP-100,2013-10-13 15:45:00,
2013-10-13 11:51:00,58.4,46.0,29.99,East,90,2.8,6.0,63,0.00,,,0.00,Rainwise IP-100,2013-10-13 15:51:00,
2013-10-13 11:56:00,57.9,46.0,29.98,SE,135,1.6,6.0,63,0.00,,,0.00,Rainwise IP-100,2013-10-13 15:56:00,
2013-10-13 12:01:00,58.8,47.0,29.98,SW,225,1.6,4.0,63,0.00,,,0.00,Rainwise IP-100,2013-10-13 16:01:00,
2013-10-13 12:06:00,60.0,47.0,29.98,SW,225,2.3,3.0,62,0.00,,,0.00,Rainwise IP-100,2013-10-13 16:06:00,
2013-10-13 12:11:00,60.0,47.0,29.98,SSE,157,1.9,5.0,61,0.00,,,0.00,Rainwise IP-100,2013-10-13 16:11:00,
2013-10-13 12:16:00,58.9,46.0,29.97,East,90,0.0,4.0,61,0.00,,,0.00,Rainwise IP-100,2013-10-13 16:16:00,
2013-10-13 12:21:00,58.8,46.0,29.97,West,270,3.0,6.0,61,0.00,,,0.00,Rainwise IP-100,2013-10-13 16:21:00,
2013-10-13 12:26:00,59.6,46.0,29.97,WSW,247,1.6,3.0,61,0.00,,,0.00,Rainwise IP-100,2013-10-13 16:26:00,
2013-10-13 12:31:00,60.5,47.0,29.97,East,90,1.4,3.0,61,0.00,,,0.00,Rainwise IP-100,2013-10-13 16:31:00,
2013-10-13 12:36:00,61.1,47.0,29.96,SE,135,1.6,3.0,60,0.00,,,0.00,Rainwise IP-100,2013-10-13 16:36:00,
2013-10-13 12:41:00,60.8,46.0,29.96,SE,135,3.5,4.0,59,0.00,,,0.00,Rainwise IP-100,2013-10-13 16:41:00,
2013-10-13 12:46:00,60.4,46.0,29.96,SE,135,2.3,5.0,58,0.00,,,0.00,Rainwise IP-100,2013-10-13 16:46:00,
2013-10-13 12:51:00,61.2,46.0,29.96,WSW,247,0.0,4.0,58,0.00,,,0.00,Rainwise IP-100,2013-10-13 16:51:00,
2013-10-13 12:56:00,62.0,47.0,29.96,SE,135,1.4,3.0,57,0.00,,,0.00,Rainwise IP-100,2013-10-13 16:56:00,
2013-10-13 13:01:00,62.5,47.0,29.95,West,270,2.3,4.0,56,0.00,,,0.00,Rainwise IP-100,2013-10-13 17:01:00,
2013-10-13 13:07:00,62.2,46.0,29.95,NNE,22,1.9,4.0,55,0.00,,,0.00,Rainwise IP-100,2013-10-13 17:07:00,
2013-10-13 13:12:00,62.2,46.0,29.94,SW,225,3.7,5.0,55,0.00,,,0.00,Rainwise IP-100,2013-10-13 17:12:00,
2013-10-13 13:17:00,62.2,46.0,29.94,SSW,202,5.6,8.0,55,0.00,,,0.00,Rainwise IP-100,2013-10-13 17:17:00,
2013-10-13 13:22:00,61.9,46.0,29.94,SW,225,3.5,5.0,55,0.00,,,0.00,Rainwise IP-100,2013-10-13 17:22:00,
2013-10-13 13:27:00,62.5,46.0,29.94,SSW,202,3.3,5.0,55,0.00,,,0.00,Rainwise IP-100,2013-10-13 17:27:00,
2013-10-13 13:32:00,62.8,46.0,29.94,West,270,0.0,7.0,54,0.00,,,0.00,Rainwise IP-100,2013-10-13 17:32:00,
2013-10-13 13:37:00,63.4,47.0,29.93,ESE,112,3.0,3.0,54,0.00,,,0.00,Rainwise IP-100,2013-10-13 17:37:00,
2013-10-13 13:42:00,64.1,47.0,29.93,SSW,202,1.9,5.0,54,0.00,,,0.00,Rainwise IP-100,2013-10-13 17:42:00,
2013-10-13 13:47:00,64.1,47.0,29.93,SSW,202,9.3,9.3,53,0.00,,,0.00,Rainwise IP-100,2013-10-13 17:47:00,
2013-10-13 13:52:00,63.0,46.0,29.93,WNW,292,0.0,10.0,53,0.00,,,0.00,Rainwise IP-100,2013-10-13 17:52:00,
2013-10-13 13:57:00,63.0,46.0,29.93,WSW,247,6.8,6.8,53,0.00,,,0.00,Rainwise IP-100,2013-10-13 17:57:00,
2013-10-13 14:02:00,63.5,47.0,29.93,West,270,1.9,8.0,54,0.00,,,0.00,Rainwise IP-100,2013-10-13 18:02:00,
2013-10-13 14:07:00,63.7,47.0,29.93,ESE,112,1.6,7.0,54,0.00,,,0.00,Rainwise IP-100,2013-10-13 18:07:00,
2013-10-13 14:12:00,63.6,47.0,29.93,ENE,67,4.4,7.0,54,0.00,,,0.00,Rainwise IP-100,2013-10-13 18:12:00,
2013-10-13 14:17:00,63.5,47.0,29.92,ENE,67,2.3,5.0,54,0.00,,,0.00,Rainwise IP-100,2013-10-13 18:17:00,
2013-10-13 14:23:00,63.4,47.0,29.92,ESE,112,2.3,5.0,55,0.00,,,0.00,Rainwise IP-100,2013-10-13 18:23:00,
2013-10-13 14:28:00,63.0,46.0,29.92,SE,135,2.1,9.0,54,0.00,,,0.00,Rainwise IP-100,2013-10-13 18:28:00,
2013-10-13 14:33:00,63.0,46.0,29.92,ENE,67,2.3,6.0,54,0.00,,,0.00,Rainwise IP-100,2013-10-13 18:33:00,
2013-10-13 14:38:00,62.7,46.0,29.92,ENE,67,3.3,10.0,55,0.00,,,0.00,Rainwise IP-100,2013-10-13 18:38:00,
2013-10-13 14:43:00,62.5,46.0,29.91,NNE,22,1.6,6.0,55,0.00,,,0.00,Rainwise IP-100,2013-10-13 18:43:00,
2013-10-13 14:48:00,62.9,47.0,29.91,SE,135,1.4,7.0,55,0.00,,,0.00,Rainwise IP-100,2013-10-13 18:48:00,
2013-10-13 14:53:00,63.1,47.0,29.91,ENE,67,2.3,7.0,55,0.00,,,0.00,Rainwise IP-100,2013-10-13 18:53:00,
2013-10-13 14:58:00,63.2,47.0,29.91,SSE,157,2.1,4.0,55,0.00,,,0.00,Rainwise IP-100,2013-10-13 18:58:00,
2013-10-13 15:03:00,63.7,47.0,29.91,East,90,4.2,7.0,55,0.00,,,0.00,Rainwise IP-100,2013-10-13 19:03:00,
2013-10-13 15:08:00,63.5,47.0,29.91,ENE,67,2.3,7.0,55,0.00,,,0.00,Rainwise IP-100,2013-10-13 19:08:00,
2013-10-13 15:13:00,63.8,47.0,29.90,South,180,1.9,4.0,55,0.00,,,0.00,Rainwise IP-100,2013-10-13 19:13:00,
2013-10-13 15:18:00,64.6,47.0,29.90,ENE,67,2.6,6.0,54,0.00,,,0.00,Rainwise IP-100,2013-10-13 19:18:00,
2013-10-13 15:23:00,64.2,47.0,29.90,South,180,8.2,8.2,54,0.00,,,0.00,Rainwise IP-100,2013-10-13 19:23:00,
2013-10-13 15:28:00,63.6,47.0,29.90,NE,45,6.3,10.0,54,0.00,,,0.00,Rainwise IP-100,2013-10-13 19:28:00,
2013-10-13 15:33:00,62.9,47.0,29.90,SE,135,6.1,11.0,55,0.00,,,0.00,Rainwise IP-100,2013-10-13 19:33:00,
2013-10-13 15:39:00,62.7,47.0,29.90,NE,45,3.7,10.0,56,0.00,,,0.00,Rainwise IP-100,2013-10-13 19:39:00,
2013-10-13 15:44:00,63.3,47.0,29.90,WSW,247,3.0,7.0,56,0.00,,,0.00,Rainwise IP-100,2013-10-13 19:44:00,
2013-10-13 15:49:00,63.5,47.0,29.90,NE,45,8.2,11.0,56,0.00,,,0.00,Rainwise IP-100,2013-10-13 19:49:00,
2013-10-13 15:54:00,62.8,47.0,29.90,NE,45,6.1,12.0,56,0.00,,,0.00,Rainwise IP-100,2013-10-13 19:54:00,
2013-10-13 15:59:00,62.4,47.0,29.90,East,90,3.5,10.0,57,0.00,,,0.00,Rainwise IP-100,2013-10-13 19:59:00,
2013-10-13 16:04:00,62.6,47.0,29.90,ENE,67,5.1,7.0,57,0.00,,,0.00,Rainwise IP-100,2013-10-13 20:04:00,
2013-10-13 16:09:00,62.9,47.0,29.90,NE,45,13.1,13.1,57,0.00,,,0.00,Rainwise IP-100,2013-10-13 20:09:00,
2013-10-13 16:14:00,62.4,47.0,29.90,South,180,0.0,13.0,57,0.00,,,0.00,Rainwise IP-100,2013-10-13 20:14:00,
2013-10-13 16:19:00,62.0,47.0,29.90,NNW,337,0.0,7.0,58,0.00,,,0.00,Rainwise IP-100,2013-10-13 20:19:00,
2013-10-13 16:24:00,62.1,47.0,29.90,South,180,0.0,6.0,58,0.00,,,0.00,Rainwise IP-100,2013-10-13 20:24:00,
2013-10-13 16:29:00,61.9,47.0,29.90,ENE,67,5.1,10.0,59,0.00,,,0.00,Rainwise IP-100,2013-10-13 20:29:00,
2013-10-13 16:34:00,61.5,47.0,29.90,ENE,67,3.0,8.0,59,0.00,,,0.00,Rainwise IP-100,2013-10-13 20:34:00,
2013-10-13 16:39:00,61.1,47.0,29.90,SE,135,2.3,11.0,60,0.00,,,0.00,Rainwise IP-100,2013-10-13 20:39:00,
2013-10-13 16:44:00,61.3,47.0,29.90,WNW,292,0.0,8.0,60,0.00,,,0.00,Rainwise IP-100,2013-10-13 20:44:00,
2013-10-13 16:49:00,61.1,47.0,29.90,ENE,67,4.9,8.0,60,0.00,,,0.00,Rainwise IP-100,2013-10-13 20:49:00,
2013-10-13 16:55:00,60.8,47.0,29.91,WSW,247,2.6,9.0,60,0.00,,,0.00,Rainwise IP-100,2013-10-13 20:55:00,
2013-10-13 17:00:00,60.7,47.0,29.90,South,180,4.2,7.0,61,0.00,,,0.00,Rainwise IP-100,2013-10-13 21:00:00,
2013-10-13 17:05:00,60.4,47.0,29.91,SE,135,0.0,7.0,61,0.00,,,0.00,Rainwise IP-100,2013-10-13 21:05:00,
2013-10-13 17:10:00,59.8,47.0,29.91,ESE,112,2.8,6.0,62,0.00,,,0.00,Rainwise IP-100,2013-10-13 21:10:00,
2013-10-13 17:15:00,59.3,47.0,29.91,South,180,2.6,9.0,63,0.00,,,0.00,Rainwise IP-100,2013-10-13 21:15:00,
2013-10-13 17:20:00,59.0,47.0,29.91,ESE,112,0.0,5.0,64,0.00,,,0.00,Rainwise IP-100,2013-10-13 21:20:00,
2013-10-13 17:25:00,58.7,47.0,29.90,ENE,67,3.5,6.0,65,0.00,,,0.00,Rainwise IP-100,2013-10-13 21:25:00,
2013-10-13 17:30:00,58.2,47.0,29.90,East,90,0.0,5.0,66,0.00,,,0.00,Rainwise IP-100,2013-10-13 21:30:00,
2013-10-13 17:35:00,58.0,47.0,29.91,East,90,0.0,0.0,67,0.00,,,0.00,Rainwise IP-100,2013-10-13 21:35:00,
2013-10-13 17:40:00,57.7,47.0,29.91,SSE,157,0.0,5.0,68,0.00,,,0.00,Rainwise IP-100,2013-10-13 21:40:00,
2013-10-13 17:45:00,57.3,47.0,29.91,WNW,292,0.0,3.0,68,0.00,,,0.00,Rainwise IP-100,2013-10-13 21:45:00,
2013-10-13 17:50:00,57.1,47.0,29.91,SSE,157,1.6,5.0,69,0.00,,,0.00,Rainwise IP-100,2013-10-13 21:50:00,
2013-10-13 17:55:00,56.8,47.0,29.91,SSW,202,0.0,5.0,70,0.00,,,0.00,Rainwise IP-100,2013-10-13 21:55:00,
2013-10-13 18:00:00,56.5,47.0,29.91,SSW,202,3.7,3.7,71,0.00,,,0.00,Rainwise IP-100,2013-10-13 22:00:00,
2013-10-13 18:05:00,56.3,47.0,29.91,SSE,157,0.0,3.0,71,0.00,,,0.00,Rainwise IP-100,2013-10-13 22:05:00,
2013-10-13 18:11:00,56.0,47.0,29.92,SSW,202,0.0,4.0,72,0.00,,,0.00,Rainwise IP-100,2013-10-13 22:11:00,
2013-10-13 18:16:00,55.7,47.0,29.91,East,90,2.8,3.0,72,0.00,,,0.00,Rainwise IP-100,2013-10-13 22:16:00,
2013-10-13 18:21:00,55.4,47.0,29.92,SW,225,0.0,4.0,73,0.00,,,0.00,Rainwise IP-100,2013-10-13 22:21:00,
2013-10-13 18:26:00,55.0,47.0,29.92,West,270,2.8,3.0,74,0.00,,,0.00,Rainwise IP-100,2013-10-13 22:26:00,
2013-10-13 18:31:00,54.7,47.0,29.92,South,180,1.6,4.0,75,0.00,,,0.00,Rainwise IP-100,2013-10-13 22:31:00,
2013-10-13 18:36:00,54.3,47.0,29.92,WSW,247,0.0,2.0,75,0.00,,,0.00,Rainwise IP-100,2013-10-13 22:36:00,
2013-10-13 18:41:00,54.1,47.0,29.92,South,180,0.0,3.0,76,0.00,,,0.00,Rainwise IP-100,2013-10-13 22:41:00,
2013-10-13 18:46:00,54.1,47.0,29.92,SW,225,1.9,3.0,76,0.00,,,0.00,Rainwise IP-100,2013-10-13 22:46:00,
2013-10-13 18:51:00,53.9,47.0,29.93,WSW,247,1.2,3.0,77,0.00,,,0.00,Rainwise IP-100,2013-10-13 22:51:00,
2013-10-13 18:56:00,53.6,47.0,29.92,WSW,247,2.3,2.3,77,0.00,,,0.00,Rainwise IP-100,2013-10-13 22:56:00,
2013-10-13 19:01:00,53.3,46.0,29.93,WSW,247,0.0,2.0,78,0.00,,,0.00,Rainwise IP-100,2013-10-13 23:01:00,
2013-10-13 19:06:00,53.0,46.0,29.93,SSW,202,0.0,3.0,78,0.00,,,0.00,Rainwise IP-100,2013-10-13 23:06:00,
2013-10-13 19:11:00,53.0,47.0,29.93,SE,135,0.0,3.0,79,0.00,,,0.00,Rainwise IP-100,2013-10-13 23:11:00,
2013-10-13 19:16:00,52.8,47.0,29.93,WSW,247,0.0,1.0,79,0.00,,,0.00,Rainwise IP-100,2013-10-13 23:16:00,
2013-10-13 19:21:00,52.4,46.0,29.93,WSW,247,0.0,0.0,80,0.00,,,0.00,Rainwise IP-100,2013-10-13 23:21:00,
2013-10-13 19:27:00,51.9,47.0,29.93,WSW,247,1.2,1.2,81,0.00,,,0.00,Rainwise IP-100,2013-10-13 23:27:00,
2013-10-13 19:32:00,51.7,47.0,29.93,SW,225,3.3,3.3,82,0.00,,,0.00,Rainwise IP-100,2013-10-13 23:32:00,
2013-10-13 19:37:00,51.7,47.0,29.93,SSE,157,0.0,4.0,82,0.00,,,0.00,Rainwise IP-100,2013-10-13 23:37:00,
2013-10-13 19:42:00,52.0,47.0,29.93,SW,225,0.0,4.0,82,0.00,,,0.00,Rainwise IP-100,2013-10-13 23:42:00,
2013-10-13 19:47:00,52.0,47.0,29.93,SSW,202,1.4,4.0,81,0.00,,,0.00,Rainwise IP-100,2013-10-13 23:47:00,
2013-10-13 19:52:00,51.9,47.0,29.93,WSW,247,1.4,4.0,81,0.00,,,0.00,Rainwise IP-100,2013-10-13 23:52:00,
2013-10-13 19:57:00,51.9,47.0,29.93,South,180,1.9,3.0,81,0.00,,,0.00,Rainwise IP-100,2013-10-13 23:57:00,
2013-10-13 20:02:00,51.8,47.0,29.93,SSW,202,1.6,3.0,81,0.00,,,0.00,Rainwise IP-100,2013-10-14 00:02:00,
2013-10-13 20:07:00,51.8,47.0,29.93,WSW,247,0.0,3.0,82,0.00,,,0.00,Rainwise IP-100,2013-10-14 00:07:00,
2013-10-13 20:12:00,51.6,47.0,29.93,WNW,292,0.0,1.0,82,0.00,,,0.00,Rainwise IP-100,2013-10-14 00:12:00,
2013-10-13 20:17:00,51.3,47.0,29.93,SW,225,0.0,2.0,83,0.00,,,0.00,Rainwise IP-100,2013-10-14 00:17:00,
2013-10-13 20:22:00,51.0,47.0,29.93,SW,225,1.4,2.0,83,0.00,,,0.00,Rainwise IP-100,2013-10-14 00:22:00,
2013-10-13 20:27:00,50.6,46.0,29.94,SW,225,1.2,2.0,84,0.00,,,0.00,Rainwise IP-100,2013-10-14 00:27:00,
2013-10-13 20:32:00,50.2,46.0,29.94,SW,225,0.0,2.0,85,0.00,,,0.00,Rainwise IP-100,2013-10-14 00:32:00,
2013-10-13 20:37:00,49.9,46.0,29.94,SW,225,0.0,0.0,86,0.00,,,0.00,Rainwise IP-100,2013-10-14 00:37:00,
2013-10-13 20:43:00,49.4,45.0,29.94,SW,225,0.0,0.0,86,0.00,,,0.00,Rainwise IP-100,2013-10-14 00:43:00,
2013-10-13 20:48:00,48.9,45.0,29.94,SW,225,0.0,0.0,87,0.00,,,0.00,Rainwise IP-100,2013-10-14 00:48:00,
2013-10-13 20:53:00,48.3,45.0,29.94,SW,225,0.0,0.0,88,0.00,,,0.00,Rainwise IP-100,2013-10-14 00:53:00,
2013-10-13 20:58:00,47.9,45.0,29.94,SW,225,0.0,0.0,89,0.00,,,0.00,Rainwise IP-100,2013-10-14 00:58:00,
2013-10-13 21:03:00,47.8,45.0,29.94,SW,225,0.0,0.0,90,0.00,,,0.00,Rainwise IP-100,2013-10-14 01:03:00,
2013-10-13 21:08:00,47.7,45.0,29.94,SW,225,0.0,0.0,90,0.00,,,0.00,Rainwise IP-100,2013-10-14 01:08:00,
2013-10-13 21:13:00,47.4,45.0,29.94,SW,225,0.0,0.0,91,0.00,,,0.00,Rainwise IP-100,2013-10-14 01:13:00,
2013-10-13 21:18:00,47.2,44.0,29.94,SW,225,0.0,0.0,91,0.00,,,0.00,Rainwise IP-100,2013-10-14 01:18:00,
2013-10-13 21:23:00,46.8,44.0,29.94,NNW,337,1.9,2.0,91,0.00,,,0.00,Rainwise IP-100,2013-10-14 01:23:00,
2013-10-13 21:28:00,46.5,44.0,29.94,NNW,337,0.0,2.0,92,0.00,,,0.00,Rainwise IP-100,2013-10-14 01:28:00,
2013-10-13 21:33:00,46.3,44.0,29.94,NNW,337,0.0,1.0,93,0.00,,,0.00,Rainwise IP-100,2013-10-14 01:33:00,
2013-10-13 21:38:00,46.1,44.0,29.94,NNW,337,0.0,0.0,93,0.00,,,0.00,Rainwise IP-100,2013-10-14 01:38:00,
2013-10-13 21:43:00,45.9,44.0,29.94,NNW,337,0.0,0.0,93,0.00,,,0.00,Rainwise IP-100,2013-10-14 01:43:00,
2013-10-13 21:48:00,45.8,44.0,29.94,NNW,337,0.0,0.0,93,0.00,,,0.00,Rainwise IP-100,2013-10-14 01:48:00,
2013-10-13 21:53:00,45.7,44.0,29.94,NNW,337,0.0,0.0,94,0.00,,,0.00,Rainwise IP-100,2013-10-14 01:53:00,
2013-10-13 21:59:00,45.5,44.0,29.94,NNW,337,0.0,0.0,94,0.00,,,0.00,Rainwise IP-100,2013-10-14 01:59:00,
2013-10-13 22:04:00,45.3,43.0,29.94,NNW,337,0.0,0.0,94,0.00,,,0.00,Rainwise IP-100,2013-10-14 02:04:00,
2013-10-13 22:09:00,45.0,43.0,29.94,NNW,337,0.0,0.0,94,0.00,,,0.00,Rainwise IP-100,2013-10-14 02:09:00,
2013-10-13 22:14:00,44.7,43.0,29.93,NNW,337,0.0,0.0,94,0.00,,,0.00,Rainwise IP-100,2013-10-14 02:14:00,
2013-10-13 22:19:00,44.4,42.0,29.93,NNW,337,0.0,1.0,94,0.00,,,0.00,Rainwise IP-100,2013-10-14 02:19:00,
2013-10-13 22:24:00,44.1,43.0,29.94,NNW,337,0.0,0.0,95,0.00,,,0.00,Rainwise IP-100,2013-10-14 02:24:00,
2013-10-13 22:29:00,43.9,43.0,29.93,NNW,337,0.0,0.0,95,0.00,,,0.00,Rainwise IP-100,2013-10-14 02:29:00,
2013-10-13 22:34:00,43.8,43.0,29.93,NNW,337,0.0,0.0,95,0.00,,,0.00,Rainwise IP-100,2013-10-14 02:34:00,
2013-10-13 22:39:00,43.8,43.0,29.93,NNW,337,0.0,1.0,96,0.00,,,0.00,Rainwise IP-100,2013-10-14 02:39:00,
2013-10-13 22:44:00,43.8,43.0,29.93,NNW,337,0.0,0.0,96,0.00,,,0.00,Rainwise IP-100,2013-10-14 02:44:00,
2013-10-13 22:49:00,43.7,43.0,29.93,NNW,337,0.0,0.0,96,0.00,,,0.00,Rainwise IP-100,2013-10-14 02:49:00,
2013-10-13 22:54:00,43.4,42.0,29.93,NNW,337,0.0,0.0,96,0.00,,,0.00,Rainwise IP-100,2013-10-14 02:54:00,
2013-10-13 22:59:00,43.1,42.0,29.93,NNW,337,0.0,1.0,96,0.00,,,0.00,Rainwise IP-100,2013-10-14 02:59:00,
2013-10-13 23:04:00,42.9,42.0,29.93,NNW,337,0.0,0.0,96,0.00,,,0.00,Rainwise IP-100,2013-10-14 03:04:00,
2013-10-13 23:09:00,42.8,42.0,29.93,NNW,337,1.2,2.0,97,0.00,,,0.00,Rainwise IP-100,2013-10-14 03:09:00,
2013-10-13 23:15:00,42.8,42.0,29.93,NNW,337,0.0,1.0,97,0.00,,,0.00,Rainwise IP-100,2013-10-14 03:15:00,
2013-10-13 23:20:00,43.0,42.0,29.93,NNW,337,0.0,3.0,97,0.00,,,0.00,Rainwise IP-100,2013-10-14 03:20:00,
2013-10-13 23:25:00,43.3,42.0,29.93,NNW,337,0.0,2.0,97,0.00,,,0.00,Rainwise IP-100,2013-10-14 03:25:00,
2013-10-13 23:30:00,43.3,42.0,29.93,NW,315,2.6,3.0,97,0.00,,,0.00,Rainwise IP-100,2013-10-14 03:30:00,
2013-10-13 23:35:00,43.2,42.0,29.93,NNE,22,1.2,4.0,97,0.00,,,0.00,Rainwise IP-100,2013-10-14 03:35:00,
2013-10-13 23:40:00,43.2,42.0,29.93,NNE,22,0.0,1.0,96,0.00,,,0.00,Rainwise IP-100,2013-10-14 03:40:00,
2013-10-13 23:45:00,43.2,42.0,29.93,NNE,22,0.0,1.0,96,0.00,,,0.00,Rainwise IP-100,2013-10-14 03:45:00,
2013-10-13 23:50:00,43.1,42.0,29.93,NNE,22,0.0,1.0,96,0.00,,,0.00,Rainwise IP-100,2013-10-14 03:50:00,
2013-10-13 23:55:00,43.1,42.0,29.93,NNE,22,2.3,2.3,97,0.00,,,0.00,Rainwise IP-100,2013-10-14 03:55:00,